Location: Johnson City
(36.3130°N, 82.3540°W)
Time: 15:35:06
(UTC-05:00)

Tiangong 1 - Visible Passes

Search period start: 23 November 2017 00:00
Search period end: 03 December 2017 00:00
Orbit: 283 x 308 km, 42.8° (Epoch: 23 November)

Date Brightness Start Highest point End Pass type
(mag) Time Alt. Az. Time Alt. Az. Time Alt. Az.
23 Nov 3.2 19:08:25 10° WSW 19:09:27 21° SW 19:09:27 21° SW visible
24 Nov 2.6 17:41:07 10° S 17:42:59 18° SE 17:44:50 10° E visible
24 Nov 3.6 19:15:02 10° W 19:15:51 18° W 19:15:51 18° W visible
25 Nov 1.4 17:46:48 10° SW 17:49:16 39° SSE 17:51:40 10° ENE visible
25 Nov 4.1 19:21:43 10° W 19:22:03 12° WNW 19:22:03 12° WNW visible
26 Nov 0.5 17:52:53 10° WSW 17:55:28 87° NNW 17:57:41 13° ENE visible
27 Nov 1.3 17:59:08 10° W 18:01:37 42° NNW 18:03:32 15° NE visible
28 Nov 2.0 18:05:25 10° WNW 18:07:41 27° NNW 18:09:12 16° NE visible
29 Nov 2.4 18:11:36 10° WNW 18:13:39 20° N 18:14:43 16° NNE visible
30 Nov 2.5 18:17:35 10° NW 18:19:31 18° N 18:20:07 17° NNE visible
01 Dec 2.4 18:23:15 10° NW 18:25:14 19° N 18:25:24 19° N visible
02 Dec 2.2 18:28:38 10° NW 18:30:36 22° N 18:30:36 22° N visible
